TimeCDT,TemperatureF,Dew PointF,Humidity,Sea Level PressureIn,VisibilityMPH,Wind Direction,Wind SpeedMPH,Gust SpeedMPH,PrecipitationIn,Events,Conditions,WindDirDegrees,DateUTC
12:15 AM,46.4,42.8,87,29.98,10.0,Calm,Calm,-,0.00,,Clear,0,2012-11-02 05:15:00
12:35 AM,46.4,42.8,87,29.97,10.0,Calm,Calm,-,0.00,,Clear,0,2012-11-02 05:35:00
12:55 AM,46.4,42.8,87,29.97,9.0,Calm,Calm,-,N/A,,Clear,0,2012-11-02 05:55:00
1:15 AM,44.6,42.8,93,29.97,10.0,Calm,Calm,-,0.00,,Clear,0,2012-11-02 06:15:00
1:35 AM,46.4,42.8,87,29.96,9.0,South,5.8,-,0.00,,Clear,180,2012-11-02 06:35:00
1:55 AM,44.6,42.8,93,29.96,9.0,South,5.8,-,0.00,,Clear,190,2012-11-02 06:55:00
2:15 AM,44.6,42.8,93,29.96,10.0,South,5.8,-,0.00,,Clear,190,2012-11-02 07:15:00
2:35 AM,44.6,42.8,93,29.96,10.0,South,6.9,-,N/A,,Clear,190,2012-11-02 07:35:00
2:55 AM,44.6,42.8,93,29.96,9.0,South,6.9,-,0.00,,Clear,190,2012-11-02 07:55:00
3:15 AM,44.6,42.8,93,29.96,10.0,South,5.8,-,0.00,,Clear,190,2012-11-02 08:15:00
3:35 AM,44.6,42.8,93,29.96,9.0,South,5.8,-,0.00,,Clear,190,2012-11-02 08:35:00
3:55 AM,44.6,42.8,93,29.95,10.0,Calm,Calm,-,0.00,,Clear,0,2012-11-02 08:55:00
4:15 AM,44.6,42.8,93,29.95,8.0,South,6.9,-,0.00,,Clear,190,2012-11-02 09:15:00
4:35 AM,44.6,42.8,93,29.95,7.0,South,6.9,-,0.00,,Clear,190,2012-11-02 09:35:00
4:55 AM,44.6,44.6,100,29.96,10.0,Calm,Calm,-,0.00,,Clear,0,2012-11-02 09:55:00
5:15 AM,44.6,42.8,93,29.96,10.0,Calm,Calm,-,0.00,,Clear,0,2012-11-02 10:15:00
5:35 AM,44.6,44.6,100,29.96,8.0,SSW,5.8,-,0.00,,Clear,200,2012-11-02 10:35:00
5:55 AM,44.6,44.6,100,29.96,10.0,SSW,4.6,-,N/A,,Clear,200,2012-11-02 10:55:00
6:15 AM,46.4,44.6,93,29.96,10.0,Calm,Calm,-,0.00,,Clear,0,2012-11-02 11:15:00
6:35 AM,44.6,44.6,100,29.97,10.0,Calm,Calm,-,N/A,,Clear,0,2012-11-02 11:35:00
6:50 AM,46.4,44.6,93,29.97,10.0,Calm,Calm,-,N/A,,Scattered Clouds,0,2012-11-02 11:50:00
7:50 AM,46.4,44.6,93,29.98,10.0,Calm,Calm,-,N/A,,Scattered Clouds,0,2012-11-02 12:50:00
8:50 AM,51.8,50.0,94,30.00,10.0,Calm,Calm,-,N/A,,Scattered Clouds,0,2012-11-02 13:50:00
9:50 AM,60.8,51.8,72,30.02,10.0,Calm,Calm,-,N/A,,Scattered Clouds,0,2012-11-02 14:50:00
10:50 AM,64.4,51.8,64,30.03,10.0,North,5.8,-,N/A,,Scattered Clouds,350,2012-11-02 15:50:00
11:50 AM,66.2,48.2,52,30.02,10.0,North,5.8,-,N/A,,Scattered Clouds,350,2012-11-02 16:50:00
1:50 PM,71.6,46.4,41,29.98,10.0,ENE,5.8,-,N/A,,Scattered Clouds,70,2012-11-02 18:50:00
2:55 PM,73.4,46.4,38,29.97,10.0,North,4.6,-,N/A,,Scattered Clouds,10,2012-11-02 19:55:00
3:50 PM,73.4,46.4,38,29.98,10.0,Calm,Calm,-,N/A,,Scattered Clouds,0,2012-11-02 20:50:00
5:50 PM,69.8,48.2,46,29.98,10.0,Calm,Calm,-,N/A,,Scattered Clouds,0,2012-11-02 22:50:00
6:50 PM,66.2,48.2,52,29.99,10.0,Calm,Calm,-,N/A,,Clear,0,2012-11-02 23:50:00
7:50 PM,62.6,48.2,59,29.99,10.0,Calm,Calm,-,N/A,,Clear,0,2012-11-03 00:50:00
8:55 PM,57.2,48.2,72,29.99,10.0,Calm,Calm,-,0.00,,Clear,0,2012-11-03 01:55:00
9:15 PM,59.0,48.2,67,30.00,10.0,Calm,Calm,-,0.00,,Clear,0,2012-11-03 02:15:00
9:35 PM,57.2,50.0,77,30.00,10.0,Calm,Calm,-,0.00,,Clear,0,2012-11-03 02:35:00
9:55 PM,57.2,48.2,72,30.00,9.0,Calm,Calm,-,0.00,,Clear,0,2012-11-03 02:55:00
10:15 PM,57.2,48.2,72,30.00,10.0,Calm,Calm,-,0.00,,Clear,0,2012-11-03 03:15:00
10:35 PM,55.4,48.2,77,30.00,10.0,Calm,Calm,-,0.00,,Clear,0,2012-11-03 03:35:00
10:55 PM,55.4,48.2,77,30.00,10.0,Calm,Calm,-,N/A,,Clear,0,2012-11-03 03:55:00
11:15 PM,55.4,48.2,77,30.00,10.0,Calm,Calm,-,0.00,,Clear,0,2012-11-03 04:15:00
11:35 PM,55.4,48.2,77,30.00,10.0,Calm,Calm,-,0.00,,Clear,0,2012-11-03 04:35:00
11:55 PM,55.4,48.2,77,30.00,10.0,Calm,Calm,-,0.00,,Clear,0,2012-11-03 04:55:00